Showing default

COSMOS 2328, 23790

Orbit data source: Space-Track

COSMOS 2328, 23790 is a payload satellite owned by VKS (CIS) in LEO that was launched on Mon, 19 Feb 1996 UTC via a TSIKLON-3 launch vehicle from the Plesetsk Missile And Space Complex (PKMTR). Payload-class satellites include a variety of spacecraft equipped with specific instruments for various scientific and technological missions. These include communications satellites like Starlink; space stations such as the ISS; scientific satellites like the Hubble; Earth observation satellites from companies like Planet Labs, Umbra, and HawkEye 360; GPS; miniature CubeSats for education and research; and military/defense satellites.

Loading next visibility...
Identifier
23790, 1996-009D
Orbit
LEO
Country
Flag of CISCIS
Related business
Manufacturer
NPO PM
Mission
Non-operational Defense Communications
Bus & Motor
STRELA-3, Unknown motor
Mass
225 kg wet, 225 kg dry
Launch date (UTC)
1996-02-19 (30 years ago)
Launch vehicle
TSIKLON-3
Launch site
Plesetsk Missile And Space Complex (PKMTR)
Object type
Payload
Rocket body
Debris
Shape & HBR
Cyl + 1 Ant, 3.5 m
Radar Cross Section
1.583 m², Large (>1 m²)

Expand to show TLE details & history
Last TLE update: 11 hours ago

TLE from 11 hours ago
0 COSMOS 2328
1 23790U 96009D   25302.91619157  .00000043  00000-0  17866-3 0  9994
2 23790  82.5733 106.6118 0007295 213.9580 146.1045 12.62596257368413
Epoch: 2025-10-29T21:59Z
TLE epoch observation values (Epoch: 2025-10-29T21:59:18.951Z)
Latitude
-0.00004°
Longitude
98.30036°
Altitude
1,419.696 km
Speed
7.149 km/s
True Right ascension
07h 06m 26s
True Declination
0° 00' 00"
Sunlit
Object was in daylight at epoch
Visualization orbit readout
Latitude
Unknown
Longitude
Unknown
Altitude
Unknown
Speed
Unknown
Apparent Right ascension
Unknown
Apparent Declination
Unknown
Sunlit
N/A
Visualization observer readout
Local Sidereal Time
04:30:52
Azimuth
Unknown
Elevation
Unknown
Doppler factor
Unknown
Orbital elements
Apogee altitude
1,415.248 km
Perigee altitude
1,403.886 km
Semi-major axis
7,787.704 km
Eccentricity
0.00073
Inclination
82.5733°
RAAN
106.6118°
Arg. of periapsis
213.958°
True anomaly
146.15108°
Mean anomaly
146.1045°
Eccentric anomaly
146.1278°
Mean motion
3.15812 °/min
Orbital period
113.99 mins
BSTAR
0.00017866
Loading maneuver chart data...
Computing Atmospheric mass density...
Loading historical data...
Loading historical data...
Loading historical data...
Loading historical data...
Loading historical data...
Loading historical data...
Loading historical data...

Documentation

Showing up to 5 results
|